Location: Newark
(36.8464°N, 25.6817°E)
Time: 13:47:19
(UTC+00:00)

Envisat - Pass Details

Date: 17 October 2019
Orbit: 764 x 766 km, 98.1° (Epoch: 19 November)

Event Time Altitude Azimuth Distance (km) Brightness Sun altitude
Rises 15:58:13 0° 152° (SSE) 3,218 6.0 -4.7°
Reaches altitude 10° 16:00:34 10° 147° (SSE) 2,296 5.2 -5.2°
Maximum altitude 16:05:26 50° 73° (ENE) 975 3.2 -6.1°
Drops below altitude 10° 16:10:20 10° 359° (N) 2,310 5.4 -7.1°
Sets 16:12:42 0° 354° (N) 3,240 6.3 -7.6°
